#�ϑ�����,���ϕ���,���ϕ���,�ő啗��,�ő啗����������,�ő�u�ԕ���,�ő�u�ԕ�����������
#(�N����),(m/s)   ,(16����),(m/s)   ,(16����)        ,(m/s)       ,(16����)            
2016/12/6 0:01,0.7,1,0.8,2,1,4
2016/12/6 0:02,0.7,2,0.7,2,0.8,5
2016/12/6 0:03,0.6,2,0.7,2,0.5,5
2016/12/6 0:04,0.5,2,0.6,2,0.5,4
2016/12/6 0:05,0.4,3,0.5,2,0.3,2
2016/12/6 0:06,0.3,3,0.4,1,0,2
2016/12/6 0:07,0.3,3,0.3,1,0.6,1
2016/12/6 0:08,0.3,3,0.3,1,1.1,16
2016/12/6 0:09,0.4,3,0.4,1,1.5,16
2016/12/6 0:10,0.5,2,0.5,1,2,16
2016/12/6 0:11,0.7,2,0.7,1,2.9,1
2016/12/6 0:12,0.8,1,0.8,2,2.7,1
2016/12/6 0:13,0.9,1,0.9,1,2.4,1
2016/12/6 0:14,1.1,1,1.1,1,2.5,1
2016/12/6 0:15,1.2,1,1.2,1,2.5,1
2016/12/6 0:16,1.4,16,1.4,16,2,1
2016/12/6 0:17,1.5,16,1.5,16,1.9,15
2016/12/6 0:18,1.6,16,1.6,16,2.1,1
2016/12/6 0:19,1.7,16,1.7,16,2.1,16
2016/12/6 0:20,1.7,1,1.7,16,2.4,1
2016/12/6 0:21,1.6,1,1.7,16,2.1,1
2016/12/6 0:22,1.6,1,1.6,16,1.8,16
2016/12/6 0:23,1.4,1,1.5,16,1.1,14
2016/12/6 0:24,1.3,1,1.4,16,1.1,1
2016/12/6 0:25,1.3,1,1.3,16,1.1,1
2016/12/6 0:26,1.2,1,1.3,16,1,2
2016/12/6 0:27,1.1,1,1.2,16,1,1
2016/12/6 0:28,1,1,1.1,16,1,1
2016/12/6 0:29,0.9,1,1,16,0.9,1
2016/12/6 0:30,0.7,1,0.9,1,1,16
2016/12/6 0:31,0.7,1,0.7,1,1.3,16
2016/12/6 0:32,0.7,1,0.7,1,1.3,16
2016/12/6 0:33,0.7,1,0.7,1,1.6,15
2016/12/6 0:34,0.7,1,0.7,1,1.4,16
2016/12/6 0:35,0.7,16,0.7,1,1.3,15
2016/12/6 0:36,0.8,16,0.8,1,1.8,15
2016/12/6 0:37,0.8,16,0.8,1,1.5,16
2016/12/6 0:38,0.8,16,0.8,1,1.9,16
2016/12/6 0:39,0.9,16,0.9,1,1.5,16
2016/12/6 0:40,0.9,16,0.9,16,1.1,16
2016/12/6 0:41,0.9,16,0.9,16,1.3,16
2016/12/6 0:42,0.9,15,0.9,16,2.1,15
2016/12/6 0:43,1,15,1,15,1.9,15
2016/12/6 0:44,1,15,1,15,1.9,15
2016/12/6 0:45,1,15,1,15,1.6,16
2016/12/6 0:46,1,15,1,15,1,15
2016/12/6 0:47,1,15,1,15,0.8,15
2016/12/6 0:48,0.9,15,0.9,15,0.4,14
2016/12/6 0:49,0.8,15,0.8,15,0.3,14
2016/12/6 0:50,0.7,15,0.8,15,0.1,14
2016/12/6 0:51,0.6,15,0.7,15,0.1,14
2016/12/6 0:52,0.5,15,0.6,15,0.3,14
2016/12/6 0:53,0.4,15,0.5,15,1,16
2016/12/6 0:54,0.4,15,0.4,15,1.4,16
2016/12/6 0:55,0.4,15,0.4,15,1.4,15
2016/12/6 0:56,0.4,15,0.4,15,1.1,16
2016/12/6 0:57,0.5,15,0.5,15,1.3,1
2016/12/6 0:58,0.5,15,0.5,15,1,16
2016/12/6 0:59,0.5,15,0.5,15,0.6,16
2016/12/6 1:00,0.5,16,0.5,15,0,16
2016/12/6 1:01,0.5,16,0.5,15,0.1,16
2016/12/6 1:02,0.5,16,0.5,15,0.1,16
2016/12/6 1:03,0.5,16,0.5,15,0.6,10
2016/12/6 1:04,0.5,16,0.5,15,0.9,8
2016/12/6 1:05,0.4,16,0.5,15,1.3,9
2016/12/6 1:06,0.4,15,0.4,15,0.9,9
2016/12/6 1:07,0.4,10,0.4,15,0.6,9
2016/12/6 1:08,0.3,9,0.3,15,0.1,9
2016/12/6 1:09,0.3,9,0.3,15,0,8
2016/12/6 1:10,0.3,8,0.3,16,0,8
2016/12/6 1:11,0.3,8,0.3,16,0.1,9
2016/12/6 1:12,0.3,9,0.3,16,0.1,10
2016/12/6 1:13,0.3,9,0.3,16,0,10
2016/12/6 1:14,0.2,9,0.3,16,0.8,16
2016/12/6 1:15,0.2,9,0.2,16,1,1
2016/12/6 1:16,0.2,9,0.2,15,1.1,1
2016/12/6 1:17,0.2,9,0.2,10,0.4,1
2016/12/6 1:18,0.2,8,0.2,9,0.5,16
2016/12/6 1:19,0.2,3,0.2,9,0,2
2016/12/6 1:20,0.2,2,0.2,8,0.1,2
2016/12/6 1:21,0.2,2,0.2,8,0,2
2016/12/6 1:22,0.2,2,0.2,9,0,2
2016/12/6 1:23,0.2,2,0.2,9,0,2
2016/12/6 1:24,0.2,2,0.2,9,0,2
2016/12/6 1:25,0.1,2,0.2,9,0,2
2016/12/6 1:26,0,2,0.1,9,0,2
2016/12/6 1:27,0,2,0,9,0.4,13
2016/12/6 1:28,0.1,2,0.1,8,0.6,13
2016/12/6 1:29,0.1,2,0.1,3,0.6,11
2016/12/6 1:30,0.1,1,0.1,2,0.6,11
2016/12/6 1:31,0.2,1,0.2,2,0.6,11
2016/12/6 1:32,0.2,15,0.2,2,0.3,11
2016/12/6 1:33,0.2,13,0.2,2,0.6,9
2016/12/6 1:34,0.2,11,0.2,2,1.1,9
2016/12/6 1:35,0.3,11,0.3,11,1.6,8
2016/12/6 1:36,0.5,10,0.5,10,1.8,8
2016/12/6 1:37,0.6,10,0.6,10,1.5,9
2016/12/6 1:38,0.6,9,0.6,10,0.9,8
2016/12/6 1:39,0.6,9,0.6,10,0.8,8
2016/12/6 1:40,0.6,9,0.6,10,0.6,8
2016/12/6 1:41,0.5,9,0.6,10,0.4,11
2016/12/6 1:42,0.6,9,0.6,10,0.4,10
2016/12/6 1:43,0.6,9,0.6,10,1,14
2016/12/6 1:44,0.6,9,0.6,10,1.1,15
2016/12/6 1:45,0.6,10,0.6,10,1,16
2016/12/6 1:46,0.5,10,0.6,10,0.9,1
2016/12/6 1:47,0.4,12,0.5,10,0.5,16
2016/12/6 1:48,0.3,14,0.4,9,0.4,16
2016/12/6 1:49,0.3,15,0.3,9,0.3,16
2016/12/6 1:50,0.4,16,0.4,9,1,2
2016/12/6 1:51,0.4,16,0.4,9,1.4,1
2016/12/6 1:52,0.6,1,0.6,9,1.6,2
2016/12/6 1:53,0.6,1,0.6,9,1.8,1
2016/12/6 1:54,0.6,1,0.6,9,1.1,1
2016/12/6 1:55,0.6,1,0.6,10,1,2
2016/12/6 1:56,0.7,1,0.7,1,1.1,1
2016/12/6 1:57,0.7,1,0.7,1,1.3,2
2016/12/6 1:58,0.8,1,0.8,1,1.1,2
2016/12/6 1:59,0.9,2,0.9,2,1.1,1
2016/12/6 2:00,0.8,2,0.9,2,0.9,3
2016/12/6 2:01,0.7,2,0.8,2,0.4,14
2016/12/6 2:02,0.6,1,0.7,2,0.5,14
2016/12/6 2:03,0.5,1,0.6,2,0.1,14
2016/12/6 2:04,0.5,1,0.5,2,0.9,12
2016/12/6 2:05,0.5,16,0.5,2,1.4,12
2016/12/6 2:06,0.6,15,0.6,2,1.9,11
2016/12/6 2:07,0.7,14,0.7,2,1.9,9
2016/12/6 2:08,0.7,13,0.7,2,1.9,10
2016/12/6 2:09,0.7,12,0.7,2,1.8,10
2016/12/6 2:10,0.8,12,0.8,2,1.9,10
2016/12/6 2:11,0.9,11,0.9,11,2,11
2016/12/6 2:12,1,11,1,11,1.9,11
2016/12/6 2:13,1.1,11,1.1,11,1.6,12
2016/12/6 2:14,1.2,11,1.2,11,2,12
2016/12/6 2:15,1.2,11,1.2,11,1.8,13
2016/12/6 2:16,1.2,11,1.2,11,1.5,14
2016/12/6 2:17,1.1,12,1.2,11,1.5,13
2016/12/6 2:18,1.1,12,1.1,11,1.5,16
2016/12/6 2:19,1.1,13,1.1,11,1.1,15
2016/12/6 2:20,1.1,13,1.1,11,1.1,15
2016/12/6 2:21,1,13,1.1,11,1.1,14
2016/12/6 2:22,0.9,14,1,11,1.4,15
2016/12/6 2:23,0.9,14,0.9,11,1.6,15
2016/12/6 2:24,0.9,14,0.9,11,1.5,15
2016/12/6 2:25,0.9,15,0.9,11,1.6,15
2016/12/6 2:26,0.9,15,0.9,11,2.1,16
2016/12/6 2:27,1,15,1,12,1.9,16
2016/12/6 2:28,1,15,1,12,2.2,16
2016/12/6 2:29,1.1,15,1.1,13,1.8,15
2016/12/6 2:30,1.2,15,1.2,15,1.6,16
2016/12/6 2:31,1.2,16,1.2,15,1.5,16
2016/12/6 2:32,1.3,16,1.3,16,1.8,16
2016/12/6 2:33,1.3,16,1.3,16,1.8,1
2016/12/6 2:34,1.3,16,1.3,16,2,1
2016/12/6 2:35,1.4,16,1.4,16,2.1,1
2016/12/6 2:36,1.3,16,1.4,16,2.5,1
2016/12/6 2:37,1.3,16,1.3,16,1.6,16
2016/12/6 2:38,1.3,1,1.3,16,1.9,1
2016/12/6 2:39,1.3,1,1.3,16,1.6,1
2016/12/6 2:40,1.2,1,1.3,16,1.5,1
2016/12/6 2:41,1.2,1,1.2,16,1.3,1
2016/12/6 2:42,1.2,1,1.2,16,1.8,1
2016/12/6 2:43,1.2,1,1.2,16,2,16
2016/12/6 2:44,1.2,1,1.2,16,2,16
2016/12/6 2:45,1.2,1,1.2,16,2.1,16
2016/12/6 2:46,1.2,1,1.2,16,1.9,1
2016/12/6 2:47,1.1,1,1.2,16,1.4,16
2016/12/6 2:48,1.1,16,1.1,1,1.1,15
2016/12/6 2:49,1,16,1.1,1,1.1,15
2016/12/6 2:50,0.9,16,1,1,0.1,10
2016/12/6 2:51,0.8,16,0.9,1,0.4,9
2016/12/6 2:52,0.7,15,0.8,1,0.4,10
2016/12/6 2:53,0.6,13,0.7,1,0.3,10
2016/12/6 2:54,0.5,13,0.6,1,0.3,15
2016/12/6 2:55,0.3,13,0.5,1,0.3,14
2016/12/6 2:56,0.2,13,0.3,1,0.3,9
2016/12/6 2:57,0.2,12,0.2,1,0.4,9
2016/12/6 2:58,0.1,11,0.2,16,0.3,8
2016/12/6 2:59,0.1,10,0.1,16,0.1,7
2016/12/6 3:00,0.1,9,0.1,16,0.1,7
2016/12/6 3:01,0.1,9,0.1,15,0.5,6
2016/12/6 3:02,0.1,8,0.1,15,0.4,6
2016/12/6 3:03,0.1,7,0.1,13,0,5
2016/12/6 3:04,0.1,7,0.1,13,0,5
2016/12/6 3:05,0.1,7,0.1,13,0,5
2016/12/6 3:06,0,6,0.1,12,0,5
2016/12/6 3:07,0,6,0,12,0,5
2016/12/6 3:08,0,6,0,11,0.3,14
2016/12/6 3:09,0.1,6,0.1,10,0.3,14
2016/12/6 3:10,0.1,5,0.1,9,0,14
2016/12/6 3:11,0,4,0,9,0,14
2016/12/6 3:12,0,2,0,8,0,14
2016/12/6 3:13,0,16,0,7,0.5,2
2016/12/6 3:14,0.1,16,0.1,7,1.3,1
2016/12/6 3:15,0.2,16,0.2,16,1.3,2
2016/12/6 3:16,0.3,16,0.3,16,1.4,2
2016/12/6 3:17,0.4,16,0.4,16,1.4,1
2016/12/6 3:18,0.5,16,0.5,16,1.4,2
2016/12/6 3:19,0.6,16,0.6,16,1.4,2
2016/12/6 3:20,0.7,1,0.7,1,1.4,2
2016/12/6 3:21,0.8,1,0.8,1,1.3,2
2016/12/6 3:22,0.8,1,0.8,1,1.1,3
2016/12/6 3:23,0.9,2,0.9,1,1.1,3
2016/12/6 3:24,0.9,2,0.9,1,0.9,5
2016/12/6 3:25,0.8,3,0.9,1,0.6,4
2016/12/6 3:26,0.7,3,0.8,1,0.6,3
2016/12/6 3:27,0.8,2,0.8,1,1.5,15
2016/12/6 3:28,0.8,2,0.8,1,1.6,15
2016/12/6 3:29,0.8,2,0.8,1,1.9,16
2016/12/6 3:30,0.7,2,0.8,1,1.6,16
2016/12/6 3:31,0.8,2,0.8,1,1.6,16
2016/12/6 3:32,0.8,1,0.8,1,1.3,1
2016/12/6 3:33,0.8,16,0.8,2,1.1,15
2016/12/6 3:34,0.9,16,0.9,2,1.9,15
2016/12/6 3:35,1,16,1,16,2.2,16
2016/12/6 3:36,1.1,16,1.1,16,2.2,16
2016/12/6 3:37,1.2,16,1.2,16,2,16
2016/12/6 3:38,1.2,16,1.2,16,2.1,16
2016/12/6 3:39,1.2,16,1.2,16,1.6,1
2016/12/6 3:40,1.2,16,1.2,16,1.1,16
2016/12/6 3:41,1.1,16,1.2,16,1.3,16
2016/12/6 3:42,1.1,16,1.1,16,1.3,16
2016/12/6 3:43,1.1,16,1.1,16,0.6,15
2016/12/6 3:44,1,16,1.1,16,0.5,15
2016/12/6 3:45,0.8,15,1,16,0.3,12
2016/12/6 3:46,0.7,15,0.8,16,0.6,15
2016/12/6 3:47,0.6,15,0.7,16,1.1,16
2016/12/6 3:48,0.6,15,0.6,16,1.1,1
2016/12/6 3:49,0.5,15,0.5,16,0.9,11
2016/12/6 3:50,0.5,14,0.5,16,0.9,9
2016/12/6 3:51,0.5,14,0.5,16,0.8,9
2016/12/6 3:52,0.5,13,0.5,16,1,11
2016/12/6 3:53,0.5,13,0.5,16,1,12
2016/12/6 3:54,0.5,13,0.5,16,0.6,14
2016/12/6 3:55,0.5,13,0.5,15,0.5,11
2016/12/6 3:56,0.5,12,0.5,15,0.8,12
2016/12/6 3:57,0.5,12,0.5,15,0.8,14
2016/12/6 3:58,0.4,12,0.5,15,0.9,13
2016/12/6 3:59,0.4,12,0.4,14,1.5,12
2016/12/6 4:00,0.5,12,0.5,14,1.3,14
2016/12/6 4:01,0.6,13,0.6,13,1.8,13
2016/12/6 4:02,0.6,13,0.6,13,1.5,15
2016/12/6 4:03,0.7,13,0.7,13,1.8,13
2016/12/6 4:04,0.8,13,0.8,13,1.8,13
2016/12/6 4:05,0.9,13,0.9,13,1.5,12
2016/12/6 4:06,1,13,1,13,1.5,12
2016/12/6 4:07,1.1,13,1.1,13,1.6,12
2016/12/6 4:08,1.1,13,1.1,13,1.5,12
2016/12/6 4:09,1.2,13,1.2,13,2.4,12
2016/12/6 4:10,1.4,13,1.4,13,2.7,12
2016/12/6 4:11,1.5,12,1.5,12,2.7,12
2016/12/6 4:12,1.5,12,1.5,12,2.1,12
2016/12/6 4:13,1.6,12,1.6,12,2.1,12
2016/12/6 4:14,1.6,12,1.6,12,1.8,14
2016/12/6 4:15,1.6,12,1.6,12,1.9,12
2016/12/6 4:16,1.6,12,1.6,12,1.9,12
2016/12/6 4:17,1.6,12,1.6,12,1.8,13
2016/12/6 4:18,1.7,12,1.7,12,2.2,12
2016/12/6 4:19,1.6,12,1.7,12,2.4,12
2016/12/6 4:20,1.5,13,1.6,12,1.6,13
2016/12/6 4:21,1.3,13,1.4,12,1.3,4
2016/12/6 4:22,1.2,13,1.3,12,1.1,3
2016/12/6 4:23,1.1,14,1.2,12,1.8,3
2016/12/6 4:24,1.2,14,1.2,12,2.1,3
2016/12/6 4:25,1.2,16,1.2,12,1.9,3
2016/12/6 4:26,1.2,1,1.2,12,1.3,4
2016/12/6 4:27,1.1,2,1.2,12,1.4,4
2016/12/6 4:28,1.1,2,1.1,12,1.3,5
2016/12/6 4:29,1,3,1,12,1.1,3
2016/12/6 4:30,0.9,3,1,13,0.9,3
2016/12/6 4:31,1,3,1,13,2,6
2016/12/6 4:32,0.9,4,1,13,0.5,2
2016/12/6 4:33,0.8,4,0.9,14,0.1,6
2016/12/6 4:34,0.6,4,0.8,15,0.5,8
2016/12/6 4:35,0.5,5,0.6,16,0.8,7
2016/12/6 4:36,0.5,6,0.5,1,0.6,8
2016/12/6 4:37,0.4,6,0.4,2,1.5,6
2016/12/6 4:38,0.4,6,0.4,2,1.6,9
2016/12/6 4:39,0.5,7,0.5,3,1.3,9
2016/12/6 4:40,0.6,7,0.6,3,2,9
2016/12/6 4:41,0.5,8,0.6,3,1.5,9
2016/12/6 4:42,0.5,8,0.5,4,0.9,14
2016/12/6 4:43,0.6,9,0.6,4,1.3,10
2016/12/6 4:44,0.7,9,0.7,9,1.6,11
2016/12/6 4:45,0.8,10,0.8,10,1.8,10
2016/12/6 4:46,0.9,10,0.9,10,2.1,9
2016/12/6 4:47,0.9,10,0.9,10,1.6,10
2016/12/6 4:48,1,10,1,10,1.5,11
2016/12/6 4:49,1,11,1,10,2,13
2016/12/6 4:50,0.9,11,1,10,0.6,12
2016/12/6 4:51,0.8,11,0.9,10,0.1,12
2016/12/6 4:52,0.8,11,0.8,10,0.1,3
2016/12/6 4:53,0.7,11,0.8,10,0.9,8
2016/12/6 4:54,0.7,11,0.7,10,2,8
2016/12/6 4:55,0.8,11,0.8,10,3.7,9
2016/12/6 4:56,0.9,11,0.9,10,4.3,10
2016/12/6 4:57,1,11,1,10,3.6,10
2016/12/6 4:58,1,10,1.1,11,2.4,10
2016/12/6 4:59,1,10,1,11,1.9,8
2016/12/6 5:00,1,9,1,11,1.4,3
2016/12/6 5:01,1,10,1,11,1.8,15
2016/12/6 5:02,1.2,10,1.2,10,2.9,15
2016/12/6 5:03,1.2,10,1.2,10,1.5,1
2016/12/6 5:04,1.2,11,1.2,10,1.4,11
2016/12/6 5:05,1.1,11,1.2,10,2,10
2016/12/6 5:06,1,11,1.1,10,1.8,10
2016/12/6 5:07,0.9,11,1,10,2.6,10
2016/12/6 5:08,1,11,1,10,2.6,11
2016/12/6 5:09,1.2,11,1.2,10,3.5,11
2016/12/6 5:10,1.3,11,1.3,11,2.1,8
2016/12/6 5:11,1.3,11,1.3,11,2.4,8
2016/12/6 5:12,1.2,10,1.3,11,2.5,10
2016/12/6 5:13,1.2,10,1.2,11,1.4,8
2016/12/6 5:14,1.3,10,1.3,11,2.2,15
2016/12/6 5:15,1.3,10,1.3,11,1.8,11
2016/12/6 5:16,1.2,10,1.2,11,1.3,15
2016/12/6 5:17,1.2,10,1.2,11,2.6,9
2016/12/6 5:18,1,10,1.2,11,2.4,9
2016/12/6 5:19,0.9,10,1,11,1.4,9
2016/12/6 5:20,0.9,10,0.9,11,2,9
2016/12/6 5:21,1.2,10,1.2,10,6.1,15
2016/12/6 5:22,1.3,10,1.3,10,4.9,9
2016/12/6 5:23,1.3,11,1.3,10,3.3,10
2016/12/6 5:24,1.4,11,1.4,11,3.6,9
2016/12/6 5:25,1.6,11,1.6,11,5.8,12
2016/12/6 5:26,2,11,2,11,5.6,13
2016/12/6 5:27,2,12,2,11,4.2,11
2016/12/6 5:28,2.2,12,2.2,12,5.5,16
2016/12/6 5:29,2.3,13,2.3,12,3,2
2016/12/6 5:30,2.2,13,2.3,12,2.2,15
2016/12/6 5:31,2,14,2.2,12,2,15
2016/12/6 5:32,2,14,2,12,4.5,11
2016/12/6 5:33,1.9,14,2,12,3.6,8
2016/12/6 5:34,1.9,14,1.9,12,3.5,8
2016/12/6 5:35,1.8,13,1.9,12,5,8
2016/12/6 5:36,1.8,13,1.8,12,8.3,15
2016/12/6 5:37,2,12,2,12,6.3,11
2016/12/6 5:38,2,12,2,12,5.6,10
2016/12/6 5:39,2,11,2,13,5.4,10
2016/12/6 5:40,2.1,11,2.1,14,6.7,14
2016/12/6 5:41,2.4,12,2.4,12,7.1,14
2016/12/6 5:42,2.5,11,2.5,12,6,12
2016/12/6 5:43,2.9,11,2.9,11,11.1,10
2016/12/6 5:44,3.2,11,3.2,11,8.7,10
2016/12/6 5:45,3.6,12,3.6,11,9.4,10
2016/12/6 5:46,3.6,12,3.7,12,6.4,11
2016/12/6 5:47,3.7,12,3.7,12,6.3,11
2016/12/6 5:48,3.8,12,3.8,12,5.6,12
2016/12/6 5:49,3.8,12,3.8,12,5.1,12
2016/12/6 5:50,3.9,12,4,12,5.7,10
2016/12/6 5:51,3.9,12,3.9,12,8.7,12
2016/12/6 5:52,3.9,12,4,12,5.5,9
2016/12/6 5:53,4.1,12,4.2,12,10,11
2016/12/6 5:54,3.8,12,4,12,6.8,12
2016/12/6 5:55,3.5,12,3.7,12,7,11
2016/12/6 5:56,3.4,12,3.4,12,6.5,10
2016/12/6 5:57,3.7,12,3.7,12,10.3,12
2016/12/6 5:58,3.9,12,3.9,12,9.2,12
2016/12/6 5:59,4,12,4,12,6.5,14
2016/12/6 6:00,3.9,12,4,12,4.8,15
2016/12/6 6:01,4,12,4,12,8.9,13
2016/12/6 6:02,4.1,12,4.2,12,8.2,12
2016/12/6 6:03,3.9,13,4.1,12,6,15
2016/12/6 6:04,4.1,13,4.1,12,9.9,12
2016/12/6 6:05,4.4,13,4.4,13,9.7,14
2016/12/6 6:06,4.3,13,4.4,13,4.9,13
2016/12/6 6:07,3.8,14,4.2,13,2.4,12
2016/12/6 6:08,3.5,14,3.7,13,6.4,12
2016/12/6 6:09,3.3,14,3.5,13,4.4,16
2016/12/6 6:10,3.4,14,3.4,13,4.7,16
2016/12/6 6:11,3.2,14,3.4,13,5.5,11
2016/12/6 6:12,3.1,14,3.2,13,4.5,14
2016/12/6 6:13,3.1,13,3.1,13,5.1,12
2016/12/6 6:14,3.1,13,3.1,13,8.3,13
2016/12/6 6:15,2.9,13,3.1,13,8.2,13
2016/12/6 6:16,3,13,3,13,5.5,12
2016/12/6 6:17,3.1,13,3.1,14,6.7,9
2016/12/6 6:18,3.4,13,3.4,14,7.9,13
2016/12/6 6:19,3.5,12,3.5,13,7.4,13
2016/12/6 6:20,3.5,12,3.5,13,6.5,9
2016/12/6 6:21,3.6,12,3.6,12,7,13
2016/12/6 6:22,3.7,12,3.7,12,7.9,12
2016/12/6 6:23,4,12,4,12,9,13
2016/12/6 6:24,3.9,12,4.1,12,7.2,13
2016/12/6 6:25,4,12,4,12,8.4,12
2016/12/6 6:26,4.1,12,4.1,12,7.5,11
2016/12/6 6:27,4.2,12,4.2,12,8.2,9
2016/12/6 6:28,4.2,11,4.2,12,7.2,11
2016/12/6 6:29,4.4,11,4.4,11,8.2,11
2016/12/6 6:30,4.6,11,4.6,11,7.4,10
2016/12/6 6:31,4.5,11,4.6,11,5.6,12
2016/12/6 6:32,4.5,11,4.6,11,7.1,12
2016/12/6 6:33,4.4,11,4.5,11,9.9,14
2016/12/6 6:34,4.2,11,4.3,11,4.7,13
2016/12/6 6:35,4.2,12,4.3,11,9.1,15
2016/12/6 6:36,4.2,12,4.2,11,8.1,16
2016/12/6 6:37,4.2,12,4.3,11,6.2,16
2016/12/6 6:38,4.2,13,4.2,11,7.5,14
2016/12/6 6:39,4.1,13,4.2,11,6.2,13
2016/12/6 6:40,3.9,13,4.1,11,4.8,13
2016/12/6 6:41,4,13,4,11,4.9,12
2016/12/6 6:42,3.9,13,3.9,11,5.5,12
2016/12/6 6:43,3.7,13,3.9,11,5,14
2016/12/6 6:44,3.6,14,3.7,11,4.5,12
2016/12/6 6:45,3.3,14,3.6,12,4.5,14
2016/12/6 6:46,3.1,13,3.4,12,3.5,12
2016/12/6 6:47,2.9,13,3,12,2.4,11
2016/12/6 6:48,2.6,14,2.9,13,2.6,16
2016/12/6 6:49,2.3,14,2.6,13,2.1,2
2016/12/6 6:50,2.2,14,2.3,13,3.1,12
2016/12/6 6:51,2.2,14,2.2,13,5.5,12
2016/12/6 6:52,2.2,14,2.3,13,5.7,13
2016/12/6 6:53,2.1,14,2.2,13,3.6,13
2016/12/6 6:54,2,14,2.1,14,3.2,15
2016/12/6 6:55,1.9,14,2.1,13,2.7,15
2016/12/6 6:56,1.9,14,1.9,13,2.7,15
2016/12/6 6:57,1.9,14,1.9,13,2.6,14
2016/12/6 6:58,1.7,14,1.9,14,0.5,1
2016/12/6 6:59,1.8,14,1.8,14,1.9,15
2016/12/6 7:00,1.7,14,1.8,14,1.5,14
2016/12/6 7:01,1.3,14,1.6,14,0.1,11
2016/12/6 7:02,1,14,1.3,14,1.8,9
2016/12/6 7:03,1,14,1,14,3.1,12
2016/12/6 7:04,1.2,13,1.2,14,4.7,12
2016/12/6 7:05,1.4,12,1.4,14,4.7,11
2016/12/6 7:06,1.7,11,1.7,14,9.9,11
2016/12/6 7:07,1.9,11,1.9,14,5.6,11
2016/12/6 7:08,2.1,11,2.1,11,4.9,12
2016/12/6 7:09,2.2,11,2.3,11,5,11
2016/12/6 7:10,2.3,10,2.3,11,3.2,9
2016/12/6 7:11,2.7,11,2.7,11,5.7,14
2016/12/6 7:12,2.7,11,2.7,11,3.3,12
2016/12/6 7:13,2.8,11,2.9,11,4.8,12
2016/12/6 7:14,2.7,11,2.8,11,3.7,9
2016/12/6 7:15,2.4,11,2.7,11,2,10
2016/12/6 7:16,2,11,2.4,11,2,14
2016/12/6 7:17,1.9,12,2,11,2.5,12
2016/12/6 7:18,1.7,12,1.9,11,2.1,3
2016/12/6 7:19,1.7,12,1.7,11,3.1,4
2016/12/6 7:20,1.8,11,1.8,11,4.2,8
2016/12/6 7:21,1.6,11,1.8,11,3.5,6
2016/12/6 7:22,1.7,10,1.7,11,3.5,7
2016/12/6 7:23,1.6,8,1.7,11,3.1,6
2016/12/6 7:24,1.5,6,1.6,11,1.8,16
2016/12/6 7:25,1.5,5,1.5,11,2.1,9
2016/12/6 7:26,1.5,6,1.5,11,2.5,10
2016/12/6 7:27,1.5,6,1.6,12,3.1,7
2016/12/6 7:28,1.5,6,1.5,12,1.1,2
2016/12/6 7:29,1.5,5,1.5,12,2.1,3
2016/12/6 7:30,1.3,5,1.5,11,1.6,4
2016/12/6 7:31,1.2,4,1.2,10,1.8,10
2016/12/6 7:32,1.3,4,1.3,10,4.9,12
2016/12/6 7:33,1.3,4,1.3,8,4.5,10
2016/12/6 7:34,1.4,8,1.4,6,2.4,12
2016/12/6 7:35,1.5,12,1.5,6,3.2,13
2016/12/6 7:36,1.6,14,1.6,6,4.9,13
2016/12/6 7:37,1.8,13,1.8,13,4.1,10
2016/12/6 7:38,2,12,2,13,6,10
2016/12/6 7:39,2.2,12,2.2,12,4.9,10
2016/12/6 7:40,2.2,12,2.2,12,2.7,13
2016/12/6 7:41,2.3,12,2.3,12,2.4,12
2016/12/6 7:42,2.2,12,2.3,12,4.1,12
2016/12/6 7:43,2.2,13,2.2,12,4.9,16
2016/12/6 7:44,2.4,13,2.4,13,5.2,16
2016/12/6 7:45,2.6,13,2.6,13,6.3,15
2016/12/6 7:46,2.8,14,2.8,14,6.9,15
2016/12/6 7:47,2.7,14,2.8,14,5.2,15
2016/12/6 7:48,2.6,14,2.7,14,3.9,11
2016/12/6 7:49,2.6,14,2.6,14,4.9,12
2016/12/6 7:50,2.9,14,2.9,14,6.2,10
2016/12/6 7:51,3.1,14,3.1,14,4.8,11
2016/12/6 7:52,3,13,3.1,14,3.1,10
2016/12/6 7:53,2.8,13,3,14,1.4,9
2016/12/6 7:54,2.5,12,2.8,14,2,7
2016/12/6 7:55,2.2,12,2.5,14,3,7
2016/12/6 7:56,2,12,2.2,14,3.7,1
2016/12/6 7:57,2.1,12,2.1,14,4.9,2
2016/12/6 7:58,2.1,12,2.1,14,4.5,16
2016/12/6 7:59,2.1,13,2.2,14,4.4,1
2016/12/6 8:00,1.9,14,2.1,14,5,4
2016/12/6 8:01,1.8,16,1.9,14,2.7,6
2016/12/6 8:02,1.8,1,1.8,13,3.8,5
2016/12/6 8:03,1.8,1,1.8,13,1.3,15
2016/12/6 8:04,2,1,2,12,4.9,10
2016/12/6 8:05,2.1,2,2.1,12,3.3,9
2016/12/6 8:06,2,3,2.1,12,2.2,9
2016/12/6 8:07,1.8,4,2,12,2.6,8
2016/12/6 8:08,1.6,6,1.8,12,1.5,10
2016/12/6 8:09,1.5,8,1.6,13,3.6,8
2016/12/6 8:10,1.4,9,1.5,1,3.1,8
2016/12/6 8:11,1.5,9,1.5,1,5.2,9
2016/12/6 8:12,1.7,9,1.7,1,4.8,6
2016/12/6 8:13,2,8,2,1,4.2,6
2016/12/6 8:14,2.1,8,2.1,1,4.2,5
2016/12/6 8:15,2.1,7,2.1,2,3.5,5
2016/12/6 8:16,2.1,6,2.1,8,3.2,2
2016/12/6 8:17,2.4,6,2.4,6,5.1,1
2016/12/6 8:18,2.7,5,2.7,5,7,16
2016/12/6 8:19,2.8,4,2.8,5,5.1,2
2016/12/6 8:20,2.7,4,2.8,5,1.9,3
2016/12/6 8:21,2.8,3,2.8,5,7.2,1
2016/12/6 8:22,2.9,3,2.9,3,6.7,1
2016/12/6 8:23,2.7,2,2.9,3,3.9,2
2016/12/6 8:24,2.5,2,2.7,3,2.6,2
2016/12/6 8:25,2.5,1,2.5,3,3.6,2
2016/12/6 8:26,2.4,1,2.5,3,2.6,12
2016/12/6 8:27,2.2,1,2.4,3,2.2,10
2016/12/6 8:28,2,1,2.2,3,3.2,3
2016/12/6 8:29,2.2,1,2.2,3,7.6,2
2016/12/6 8:30,2.5,1,2.5,3,7.5,2
2016/12/6 8:31,2.6,2,2.6,3,6.8,3
2016/12/6 8:32,2.5,2,2.6,3,5.6,3
2016/12/6 8:33,2.4,2,2.5,2,3.5,3
2016/12/6 8:34,2.4,3,2.4,1,2,4
2016/12/6 8:35,2.5,3,2.5,1,5.6,2
2016/12/6 8:36,2.7,3,2.7,3,5.7,16
2016/12/6 8:37,2.7,3,2.7,3,3.6,3
2016/12/6 8:38,3.2,3,3.2,3,10.2,16
2016/12/6 8:39,3.1,2,3.2,3,7.9,2
2016/12/6 8:40,2.9,3,3.1,3,5,8
2016/12/6 8:41,2.9,3,2.9,3,5.6,8
2016/12/6 8:42,2.8,3,2.9,3,4.5,7
2016/12/6 8:43,2.7,4,2.8,3,3.3,8
2016/12/6 8:44,2.8,4,2.8,3,2.5,8
2016/12/6 8:45,2.7,5,2.7,3,5.1,9
2016/12/6 8:46,2.9,7,2.9,3,8.3,9
2016/12/6 8:47,3.2,8,3.2,3,7.1,8
2016/12/6 8:48,3.1,8,3.2,3,7.5,9
2016/12/6 8:49,3.1,8,3.1,8,8.2,9
2016/12/6 8:50,3,9,3.1,8,4.4,9
2016/12/6 8:51,2.9,9,3,8,3,12
2016/12/6 8:52,2.8,9,2.8,8,4.1,7
2016/12/6 8:53,2.9,9,2.9,8,3,9
2016/12/6 8:54,2.9,9,2.9,8,3,9
2016/12/6 8:55,2.9,9,2.9,8,6.2,8
2016/12/6 8:56,2.8,9,3,8,8.5,8
2016/12/6 8:57,2.6,10,2.8,8,4.7,14
2016/12/6 8:58,2.6,10,2.7,8,5.6,10
2016/12/6 8:59,2.5,10,2.6,8,4.2,11
2016/12/6 9:00,2.4,10,2.4,9,3.8,11
2016/12/6 9:01,2.4,9,2.4,9,4.7,9
2016/12/6 9:02,2.5,9,2.5,9,5.6,9
2016/12/6 9:03,2.5,10,2.5,9,4.4,9
2016/12/6 9:04,2.6,10,2.6,9,4.5,10
2016/12/6 9:05,2.6,10,2.6,9,5,8
2016/12/6 9:06,2.4,9,2.6,9,3.6,6
2016/12/6 9:07,2.4,9,2.4,10,3.9,7
2016/12/6 9:08,2.2,8,2.4,10,2.9,16
2016/12/6 9:09,2.2,8,2.2,10,3.9,5
2016/12/6 9:10,2.1,7,2.2,10,3.3,16
2016/12/6 9:11,2.2,6,2.2,10,6.3,1
2016/12/6 9:12,2.2,5,2.2,10,6.4,2
2016/12/6 9:13,2.4,4,2.4,10,5.7,2
2016/12/6 9:14,2.5,3,2.5,10,7.7,1
2016/12/6 9:15,2.6,3,2.6,10,6.1,2
2016/12/6 9:16,2.7,2,2.7,3,4.7,1
2016/12/6 9:17,2.8,2,2.8,2,6.1,1
2016/12/6 9:18,3.2,2,3.2,2,10,16
2016/12/6 9:19,3.2,1,3.2,2,4.8,1
2016/12/6 9:20,3.1,1,3.2,2,2.1,16
2016/12/6 9:21,3.1,1,3.2,2,4.5,1
2016/12/6 9:22,3.1,1,3.1,2,4.7,15
2016/12/6 9:23,3.2,16,3.2,2,8.2,16
2016/12/6 9:24,3,16,3.2,2,3.1,5
2016/12/6 9:25,2.8,16,3,2,3.3,14
2016/12/6 9:26,2.7,16,2.8,2,3.2,15
2016/12/6 9:27,2.4,16,2.7,2,1.8,5
2016/12/6 9:28,1.9,1,2.4,2,1.4,3
2016/12/6 9:29,1.7,1,1.9,1,2,3
2016/12/6 9:30,2.1,1,2.1,1,7,16
2016/12/6 9:31,2.3,1,2.3,16,6.9,16
2016/12/6 9:32,2.5,1,2.5,16,8.7,16
2016/12/6 9:33,2.5,2,2.5,16,8.2,14
2016/12/6 9:34,2.7,1,2.7,16,6.2,16
2016/12/6 9:35,2.9,1,2.9,1,6.1,16
2016/12/6 9:36,3.1,1,3.1,1,6.1,1
2016/12/6 9:37,3.2,1,3.2,1,6.8,15
2016/12/6 9:38,3.4,16,3.4,16,5,1
2016/12/6 9:39,3.5,16,3.5,16,6.1,2
2016/12/6 9:40,3.4,16,3.5,16,6.4,2
2016/12/6 9:41,3.2,1,3.4,16,3.5,2
2016/12/6 9:42,3,1,3.2,16,4.5,3
2016/12/6 9:43,2.7,1,2.9,16,3.9,3
2016/12/6 9:44,2.7,1,2.8,16,7.1,1
2016/12/6 9:45,2.7,1,2.7,16,4.4,15
2016/12/6 9:46,2.8,1,2.8,16,8.2,16
2016/12/6 9:47,3.1,1,3.1,16,7,1
2016/12/6 9:48,3.2,1,3.2,16,7.5,1
2016/12/6 9:49,3.2,1,3.3,16,2.7,13
2016/12/6 9:50,3,1,3.2,16,3.5,15
2016/12/6 9:51,3.3,16,3.3,1,8.2,15
2016/12/6 9:52,3.4,16,3.4,16,5.1,15
2016/12/6 9:53,3.4,16,3.4,16,2.7,14
2016/12/6 9:54,3.2,15,3.3,16,4.4,13
2016/12/6 9:55,3.5,15,3.5,15,10.5,15
2016/12/6 9:56,3.6,15,3.6,15,9.1,15
2016/12/6 9:57,3.4,15,3.6,15,5.5,14
2016/12/6 9:58,3.2,15,3.4,15,3.2,1
2016/12/6 9:59,3.1,15,3.2,15,2.1,2
2016/12/6 10:00,3.2,15,3.2,15,4.8,1
2016/12/6 10:01,2.9,15,3.1,15,5.5,13
2016/12/6 10:02,2.9,14,3,15,6.7,10
2016/12/6 10:03,2.9,14,2.9,15,3,9
2016/12/6 10:04,2.8,14,2.9,15,2,9
2016/12/6 10:05,2.2,14,2.7,15,1.3,16
2016/12/6 10:06,1.7,14,2.2,15,1.3,14
2016/12/6 10:07,1.4,13,1.7,15,1,15
2016/12/6 10:08,1.3,12,1.4,15,1.1,11
2016/12/6 10:09,1.3,12,1.3,15,2,13
2016/12/6 10:10,1.2,12,1.3,15,1.6,12
2016/12/6 10:11,1,12,1.2,14,2.5,9
2016/12/6 10:12,0.8,12,0.9,14,1.8,5
2016/12/6 10:13,0.8,9,0.8,14,2.7,4
2016/12/6 10:14,0.8,9,0.8,14,3.6,8
2016/12/6 10:15,1,8,1,14,3.9,10
2016/12/6 10:16,1,8,1,14,3.8,7
2016/12/6 10:17,1.2,8,1.2,13,5.6,8
2016/12/6 10:18,1.3,8,1.3,12,5.2,8
2016/12/6 10:19,1.3,7,1.3,12,2.9,8
2016/12/6 10:20,1.4,7,1.4,7,4.3,10
2016/12/6 10:21,1.4,8,1.4,7,2.2,11
2016/12/6 10:22,1.6,9,1.6,8,4.1,12
2016/12/6 10:23,1.5,9,1.5,8,1.4,15
2016/12/6 10:24,1.6,10,1.6,8,2.7,13
2016/12/6 10:25,1.6,11,1.6,8,3.1,13
2016/12/6 10:26,1.6,11,1.6,8,3.1,12
2016/12/6 10:27,1.7,11,1.7,11,4.5,4
2016/12/6 10:28,1.7,11,1.8,11,5,4
2016/12/6 10:29,1.7,12,1.7,11,1.8,2
2016/12/6 10:30,1.8,13,1.8,11,3.5,4
2016/12/6 10:31,2,16,2,16,6,3
2016/12/6 10:32,2,2,2.1,1,6.3,3
2016/12/6 10:33,2.3,2,2.3,2,6,16
2016/12/6 10:34,2.4,2,2.4,2,6.1,16
2016/12/6 10:35,2.7,2,2.7,2,8.4,16
2016/12/6 10:36,2.7,2,2.7,2,4.1,15
2016/12/6 10:37,2.5,2,2.7,2,1,12
2016/12/6 10:38,2.3,1,2.4,2,2.6,15
2016/12/6 10:39,2.6,16,2.6,2,6.1,15
2016/12/6 10:40,2.7,16,2.7,2,5.6,15
2016/12/6 10:41,2.6,15,2.7,2,5.1,10
2016/12/6 10:42,2.5,14,2.6,2,2.7,14
2016/12/6 10:43,2.3,14,2.5,2,3.8,1
2016/12/6 10:44,2.5,14,2.5,2,9.1,16
2016/12/6 10:45,2.4,15,2.6,2,7.9,16
2016/12/6 10:46,2.8,14,2.8,14,8.7,16
2016/12/6 10:47,3.2,14,3.2,14,10,15
2016/12/6 10:48,3.2,15,3.2,14,3.7,4
2016/12/6 10:49,3,15,3.2,14,2.6,9
2016/12/6 10:50,2.7,15,2.9,14,1.1,15
2016/12/6 10:51,2.6,16,2.7,14,1.4,8
2016/12/6 10:52,2.6,1,2.6,14,3.5,3
2016/12/6 10:53,2.5,1,2.6,14,3.5,5
2016/12/6 10:54,2.1,2,2.5,14,1.8,9
2016/12/6 10:55,1.8,4,2,14,4.1,8
2016/12/6 10:56,1.5,6,1.7,14,5.5,8
2016/12/6 10:57,1.5,6,1.5,14,5.1,8
2016/12/6 10:58,1.8,7,1.8,15,6.9,8
2016/12/6 10:59,2,7,2,15,4.7,8
2016/12/6 11:00,2.1,8,2.1,15,2.5,8
2016/12/6 11:01,2.1,8,2.1,16,2,8
2016/12/6 11:02,2.1,8,2.1,1,3.5,7
2016/12/6 11:03,2.1,8,2.1,1,2.9,6
2016/12/6 11:04,2.4,8,2.4,8,5,8
2016/12/6 11:05,2.5,8,2.5,8,5.4,13
2016/12/6 11:06,2.4,8,2.5,8,4.9,11
2016/12/6 11:07,2.3,9,2.4,8,4.3,12
2016/12/6 11:08,2.3,9,2.3,8,6.8,9
2016/12/6 11:09,2.2,9,2.3,8,5.4,10
2016/12/6 11:10,2.1,9,2.2,8,2.2,9
2016/12/6 11:11,2.1,9,2.1,8,1.6,8
2016/12/6 11:12,2,10,2.1,8,2.4,8
2016/12/6 11:13,2,10,2.1,8,2.9,9
2016/12/6 11:14,1.9,11,2,8,3.2,15
2016/12/6 11:15,1.8,11,2,8,3,11